[[{"header":{"parameterUnit":"m.s-1","parameterCategory":1,"la1":30.2991,"la2":30.254,"lo1":-89.0895,"lo2":-89.0444,"dy":0.0017,"dx":0.0017,"nx":28,"ny":28,"refTime":"2024-07-09T03:00:00:Z","depth":0,"parameterNumber":2,"parameterNumberName":"U-component_of_WINDS"},"data":[0,0,0,0,0,0,0,0,0,0,0,0,0,0,0,0,0,0,0,0,0,0,0,0,0,0,0,0,0,0,0,0,0,0,0,0,0,0,0,0,0,0,0,0,0,0,0,0,0,0,0,0,0,0,0,0,0,0,5.1084,5.1085,0,5.1159,5.116,5.1161,5.1093,5.109,5.1087,5.1085,5.1159,5.1164,5.1168,0,0,0,0,0,0,0,0,0,0,0,0,0,5.0878,5.0882,5.1084,5.1085,5.1086,5.1159,5.116,5.1161,5.1093,5.109,5.1087,5.1084,5.1158,5.1163,5.1169,0,0,0,0,0,0,0,0,0,0,0,0,0,5.0962,5.0883,5.1084,5.1061,5.106,5.1159,5.116,5.1161,5.1094,5.109,5.1086,5.1082,5.1156,5.1163,5.1169,5.1294,0,0,5.119,5.1193,0,0,0,0,0,0,0,0,5.0957,5.0969,5.1064,5.1063,5.1062,5.1113,5.1114,5.1206,5.1095,5.1081,5.1085,5.108,5.1147,5.1154,5.1177,5.1297,5.1301,5.1191,5.1195,5.1198,5.12,0,0,0,0,0,0,0,5.0951,5.0966,5.1114,5.1065,5.1064,5.1046,5.1053,5.1131,5.1136,5.1082,5.1077,5.1087,5.1146,5.1171,5.1178,5.1302,5.1191,5.1197,5.1201,5.1204,5.1522,5.1526,0,0,0,0,0,0,5.0948,5.0961,5.1111,5.1116,5.0998,5.1053,5.1061,5.11,5.1135,5.1137,5.1091,5.1084,5.1161,5.1171,5.1181,5.1324,5.1198,5.1204,5.1208,5.1518,5.1523,5.1528,0,0,0,0,0,0,5.0944,5.0962,5.1108,5.1037,5.1055,5.1061,5.1106,5.1104,5.1129,5.1142,5.1142,5.1116,5.1158,5.1171,5.1265,5.1326,5.1207,5.1213,5.1513,5.152,5.1526,5.1615,0,0,0,0,0,0,5.0939,5.0961,5.101,5.1039,5.1059,5.1193,5.111,5.1109,5.1141,5.1133,5.1165,5.1167,5.1156,5.1255,5.1272,5.1333,5.1219,5.1507,5.1516,5.1523,5.1607,5.1624,5.1639,0,0,0,0,0,5.0932,5.1033,5.1013,5.1031,5.112,5.1197,5.1208,5.1194,5.1147,5.1194,5.1202,5.1166,5.1318,5.1266,5.1284,5.1348,5.1503,5.1513,5.1523,5.16,5.1621,5.1639,0,0,0,0,0,0,5.1011,5.1036,5.1014,5.1129,5.1161,5.1185,5.1245,5.1218,5.1264,5.1254,5.1235,5.1243,5.1341,5.1355,5.1296,5.1468,5.1402,5.1416,5.1455,5.1475,5.1491,5.1483,5.1224,0,0,0,0,0,5.1042,5.1104,5.1122,5.1221,5.1239,5.1239,5.1273,5.1259,5.1291,5.1305,5.1319,5.1351,5.1405,5.1442,5.1493,5.161,5.1613,5.1663,5.1679,5.1692,5.1703,5.176,5.1781,5.156,5.156,5.156,0,0,5.1106,5.1128,5.1168,5.1238,5.1261,5.1322,5.1251,5.1321,5.1365,5.1315,5.1403,5.1415,5.1449,5.1554,5.1601,5.1568,5.1765,5.1705,5.1715,5.1719,5.1773,5.1794,5.1812,5.1567,5.1566,5.1565,0,0,5.1253,5.1278,5.136,5.1385,5.1421,5.1421,5.1441,5.1469,5.1475,5.1563,5.1525,5.1578,5.1674,5.1698,5.1723,5.1877,5.1844,5.1895,5.1977,5.2033,5.2051,5.2066,5.2116,5.2135,5.1906,5.1907,5.1907,0,5.1328,5.142,5.1406,5.1477,5.1507,5.1465,5.1546,5.1571,5.1622,5.1642,5.1606,5.1722,5.1743,5.185,5.1887,5.1911,5.193,5.1889,5.205,5.2065,5.2079,5.2126,5.2145,5.1912,5.1912,5.1911,5.191,0,5.1507,5.1573,5.1635,5.1684,5.1721,5.1798,5.1793,5.1832,5.1816,5.1818,5.1906,5.193,5.1982,5.2008,5.1993,5.2112,5.209,5.2053,5.1985,5.2105,5.2149,5.2168,5.192,5.1918,5.1916,5.1915,0,0,5.1705,5.1745,5.1767,5.1787,5.1823,5.1872,5.1946,5.1997,5.2029,5.2066,5.2124,5.2205,5.2169,5.2197,5.2185,5.2235,5.2349,5.219,5.219,5.2214,5.2476,5.25,5.2522,5.2329,5.2333,5.2336,5.2471,0,5.1849,5.1976,5.1964,5.2084,5.2141,5.2101,5.2164,5.2191,5.2196,5.2243,5.2248,5.2304,5.2255,5.2271,5.2319,5.2325,5.24,5.2316,5.2379,5.2381,5.2367,5.2546,5.2573,5.27,5.2489,5.2492,5.2494,0,5.2035,5.2076,5.2201,5.2225,5.2248,5.2305,5.2349,5.2397,5.2426,5.2426,5.2457,5.2435,5.2505,5.244,5.2535,5.2477,5.2503,5.2509,5.2514,5.2515,5.2442,5.2547,5.274,5.2757,5.2522,5.252,5.2518,0,5.2159,5.2247,5.2332,5.2351,5.2383,5.2422,5.2437,5.2463,5.2494,5.2533,5.2551,5.2599,5.2623,5.2659,5.265,5.2604,5.2745,5.268,5.2743,5.2743,5.2771,5.2768,5.2966,5.2796,5.2796,5.2795,5.2795,0,5.2318,5.2395,5.2387,5.2439,5.2522,5.2508,5.2591,5.26,5.2623,5.2674,5.2644,5.2692,5.2679,5.2726,5.2719,5.2796,5.2809,5.2807,5.2804,5.2807,5.2807,5.282,5.2809,5.28,5.2799,5.2798,5.2797,0,5.247,5.2469,5.2557,5.258,5.2587,5.2647,5.2665,5.2712,5.2714,5.2779,5.2793,5.2795,5.2849,5.2844,5.2905,5.29,5.2993,5.2982,5.2983,5.2978,5.3039,5.3031,5.3248,5.3274,5.3092,5.3094,5.3096,0,5.2569,5.2627,5.2655,5.2686,5.2704,5.2756,5.2787,5.2775,5.2807,5.2844,5.2886,5.2937,5.2976,5.3063,5.3069,5.3115,5.3101,5.3174,5.3107,5.3107,5.3095,5.309,5.3093,5.3185,5.3187,5.3189,5.319,0,5.2744,5.2739,5.2785,5.283,5.2867,5.2902,5.2933,5.2961,5.2951,5.2989,5.3043,5.3074,5.3135,5.3184,5.3227,5.324,5.3212,5.3212,5.3228,5.3229,5.3225,5.3223,5.3013,5.3206,5.3204,5.3203,5.3202,5.3202,5.2868,5.2916,5.2941,5.2992,5.3015,5.3044,5.3088,5.3095,5.314,5.3188,5.3179,5.3238,5.3264,5.3318,5.3335,5.338,5.3354,5.3378,5.3383,5.3388,5.3393,5.3222,5.3389,5.3388,5.3388,5.3388,5.3387,0,5.3036,5.305,5.3098,5.3141,5.3181,5.3153,5.3186,5.322,5.3272,5.3299,5.3338,5.3398,5.3445,5.3455,5.35,5.3534,5.3522,5.3545,5.354,5.3543,5.3417,5.3396,5.3554,5.3554,5.3554,5.3554,5.3554,5.3554,5.3128,5.3205,5.3203,5.329,5.3304,5.3362,5.3382,5.3408,5.3428,5.3497,5.3536,5.3542,5.3561,5.3606,5.3647,5.3649,5.3664,5.3692,5.3688,5.3569,5.3552,5.3536,5.3516,5.3697,5.3697,5.3809,5.381,5.3811]},{"header":{"parameterUnit":"m.s-1","parameterCategory":1,"la1":30.2991,"la2":30.254,"lo1":-89.0895,"lo2":-89.0444,"dy":0.0017,"dx":0.0017,"nx":28,"ny":28,"refTime":"2024-07-09T03:00:00:Z","depth":0,"parameterNumber":3,"parameterNumberName":"V-component_of_WINDS"},"data":[0,0,0,0,0,0,0,0,0,0,0,0,0,0,0,0,0,0,0,0,0,0,0,0,0,0,0,0,0,0,0,0,0,0,0,0,0,0,0,0,0,0,0,0,0,0,0,0,0,0,0,0,0,0,0,0,0,0,4.3459,4.346,0,4.3528,4.3529,4.353,4.3491,4.3489,4.3487,4.3485,4.3552,4.3555,4.3559,0,0,0,0,0,0,0,0,0,0,0,0,0,4.3287,4.3291,4.3459,4.346,4.3461,4.3528,4.3529,4.353,4.3491,4.3489,4.3486,4.3484,4.3551,4.3555,4.3559,0,0,0,0,0,0,0,0,0,0,0,0,0,4.336,4.3292,4.3459,4.345,4.3449,4.3528,4.3529,4.353,4.3491,4.3488,4.3486,4.3483,4.3549,4.3554,4.356,4.3651,0,0,4.3576,4.3579,0,0,0,0,0,0,0,0,4.3356,4.3366,4.345,4.345,4.345,4.3498,4.3493,4.3571,4.3492,4.3475,4.3485,4.3481,4.3536,4.3542,4.3561,4.3654,4.3657,4.3577,4.358,4.3582,4.3584,0,0,0,0,0,0,0,4.3351,4.3363,4.3486,4.3451,4.3451,4.344,4.3447,4.3508,4.3521,4.3477,4.3474,4.3483,4.3535,4.3556,4.3563,4.3658,4.3577,4.3581,4.3585,4.3587,4.3825,4.3828,0,0,0,0,0,0,4.3347,4.3359,4.3484,4.3489,4.3395,4.3445,4.3453,4.3486,4.352,4.3523,4.3485,4.3481,4.3549,4.3557,4.3565,4.3672,4.3582,4.3587,4.359,4.3822,4.3825,4.3829,0,0,0,0,0,0,4.3343,4.3359,4.3481,4.3423,4.3438,4.3451,4.3488,4.3488,4.3509,4.3527,4.3528,4.3505,4.3547,4.3557,4.3629,4.3673,4.359,4.3595,4.3818,4.3823,4.3827,4.3887,0,0,0,0,0,0,4.3339,4.3358,4.3394,4.3424,4.3441,4.3547,4.3491,4.3492,4.3519,4.3514,4.3545,4.3548,4.3545,4.3621,4.3635,4.3679,4.3599,4.3814,4.382,4.3826,4.3881,4.3893,4.3904,0,0,0,0,0,4.3333,4.3408,4.3396,4.3411,4.3487,4.3549,4.3559,4.3556,4.3523,4.3558,4.3569,4.3547,4.3667,4.3629,4.3644,4.3691,4.3811,4.3818,4.3825,4.3876,4.3891,4.3903,0,0,0,0,0,0,4.3381,4.3412,4.3399,4.3486,4.3516,4.3542,4.3587,4.3572,4.361,4.3603,4.3596,4.3604,4.3678,4.3692,4.3649,4.3779,4.3734,4.3744,4.3767,4.3782,4.3793,4.3787,4.3603,0,0,0,0,0,4.3402,4.3452,4.3475,4.355,4.3565,4.3574,4.3601,4.3596,4.3625,4.3637,4.3653,4.3682,4.3725,4.3754,4.3796,4.3883,4.3888,4.3922,4.3933,4.3943,4.3951,4.3996,4.401,4.3852,4.3852,4.3852,0,0,4.3446,4.3468,4.35,4.356,4.3582,4.3632,4.3584,4.364,4.3675,4.3645,4.3714,4.3726,4.3757,4.3837,4.3872,4.385,4.3996,4.3951,4.3959,4.3962,4.4004,4.4019,4.4033,4.3856,4.3856,4.3855,0,0,4.355,4.3574,4.3637,4.366,4.3695,4.3699,4.3715,4.3744,4.3751,4.382,4.3798,4.3839,4.3916,4.3938,4.3959,4.407,4.405,4.4084,4.4142,4.4185,4.4198,4.4209,4.4246,4.426,4.4092,4.4092,4.4093,0,4.36,4.3675,4.3672,4.3728,4.3754,4.3729,4.3792,4.3814,4.386,4.3877,4.3852,4.3946,4.3965,4.4048,4.4075,4.4094,4.4109,4.408,4.4196,4.4207,4.4218,4.4253,4.4267,4.4096,4.4096,4.4095,4.4095,0,4.3733,4.3786,4.3833,4.3878,4.3909,4.3969,4.3972,4.4003,4.3995,4.4002,4.4071,4.4093,4.4137,4.4157,4.4149,4.4238,4.4223,4.4197,4.4151,4.4236,4.427,4.4283,4.4102,4.41,4.4099,4.4098,0,0,4.3871,4.3913,4.393,4.3949,4.3984,4.4023,4.408,4.4125,4.4151,4.4183,4.4229,4.4293,4.4269,4.4293,4.4287,4.4326,4.4409,4.4295,4.4295,4.4314,4.4506,4.4524,4.454,4.4396,4.4399,4.4401,4.4502,0,4.3976,4.4078,4.4075,4.4168,4.4215,4.4191,4.4241,4.4266,4.4274,4.4313,4.432,4.4365,4.4331,4.4345,4.4382,4.4391,4.4447,4.4384,4.4437,4.4439,4.4429,4.4558,4.4577,4.4672,4.4516,4.4518,4.4519,0,4.4113,4.415,4.4248,4.4274,4.4294,4.4338,4.4377,4.4416,4.4443,4.4446,4.4472,4.446,4.4515,4.4468,4.4543,4.45,4.4521,4.4529,4.4532,4.4536,4.4484,4.4563,4.4702,4.4716,4.454,4.4539,4.4537,0,4.4201,4.4275,4.4343,4.436,4.4393,4.4424,4.4439,4.4464,4.449,4.4524,4.454,4.4579,4.46,4.463,4.4628,4.4594,4.4703,4.4656,4.4704,4.4704,4.4727,4.4726,4.4871,4.4744,4.4744,4.4743,4.4743,0,4.4319,4.4379,4.4383,4.4424,4.449,4.4486,4.4551,4.4562,4.4584,4.4625,4.4607,4.4646,4.4641,4.468,4.4678,4.4739,4.4749,4.4751,4.475,4.4752,4.4752,4.4765,4.4758,4.4747,4.4746,4.4746,4.4745,0,4.4428,4.4434,4.4505,4.453,4.4538,4.4585,4.4605,4.4643,4.4649,4.4701,4.4713,4.4721,4.4765,4.4766,4.4817,4.4816,4.4889,4.4881,4.488,4.4878,4.4925,4.492,4.5083,4.5103,4.4965,4.4966,4.4967,0,4.4502,4.4548,4.4578,4.4605,4.4621,4.4665,4.4692,4.4688,4.4716,4.4749,4.4783,4.4826,4.4859,4.4931,4.494,4.4978,4.4969,4.5024,4.4975,4.4975,4.4968,4.4965,4.4968,4.5033,4.5034,4.5036,4.5037,0,4.4632,4.4632,4.4671,4.4711,4.4743,4.4774,4.4803,4.4825,4.4825,4.4856,4.4902,4.4928,4.4979,4.5021,4.5058,4.507,4.5053,4.5052,4.5065,4.5067,4.5064,4.5064,4.4905,4.5048,4.5047,4.5046,4.5046,4.5045,4.4725,4.4764,4.479,4.4834,4.4855,4.4882,4.4918,4.4928,4.4966,4.5008,4.5003,4.5053,4.5077,4.5124,4.514,4.5177,4.5158,4.5177,4.5182,4.5186,4.5191,4.5059,4.5184,4.5184,4.5184,4.5183,4.5183,0,4.4852,4.4868,4.4908,4.4949,4.4982,4.4964,4.4994,4.5023,4.5067,4.5092,4.5125,4.5176,4.5216,4.5228,4.5266,4.5293,4.5286,4.5303,4.5301,4.5303,4.5207,4.5191,4.5309,4.5309,4.5309,4.5308,4.5308,4.5308,4.4922,4.4986,4.4989,4.5062,4.5077,4.5126,4.5145,4.5168,4.5187,4.5245,4.5279,4.5286,4.5305,4.5344,4.5379,4.5381,4.5395,4.5415,4.5414,4.5323,4.531,4.5298,4.5284,4.5419,4.5419,4.5507,4.5508,4.5509]}]]